FW1140 Weather Reports


time (UTC)temp
F
wind
direction
speed
knots
gust
knots
rain 1hr
in
rain 24hr
in
rain mn
in
humidity
%
barometer
mb
20260509043004 49 212 7.0 10.4 0.00 0.00 0.00 62 1001.1
20260509041502 49 208 7.0 8.7 0.00 0.00 0.00 59 1001.3
20260509040001 48 228 5.2 7.8 0.00 0.00 0.00 60 1001.6
20260509034503 48 241 5.2 7.8 0.00 0.00 0.00 61 1001.8
20260509033059 49 245 5.2 7.8 0.00 0.00 0.00 58 1002.0
20260509031602 49 235 5.2 7.8 0.00 0.00 0.00 56 1002.1
20260509030113 50 236 5.2 7.8 0.00 0.00 0.00 54 1002.3
20260509024602 54 236 5.2 7.8 0.00 0.00 0.00 46 1002.3
20260509023059 55 240 4.3 7.0 0.00 0.00 0.00 45 1002.3
20260509021558 57 243 5.2 7.8 0.00 0.00 0.00 42 1002.3
20260509020106 56 242 3.5 5.2 0.00 0.00 0.00 43 1002.2
20260509014557 60 280 4.3 7.0 0.00 0.00 0.00 37 1002.3
20260509013100 61 292 3.5 10.4 0.00 0.00 0.00 36 1002.2
20260509011558 62 304 5.2 10.4 0.00 0.00 0.00 35 1002.3
20260509010055 64 322 8.7 13.0 0.00 0.00 0.00 33 1002.1
20260509004600 65 302 9.6 14.8 0.00 0.00 0.00 32 1002.1
20260509003057 66 306 10.4 18.2 0.00 0.00 0.00 31 1002.2
20260509001554 67 314 13.9 18.2 0.00 0.00 0.00 31 1002.0
20260509000055 67 295 13.0 21.7 0.00 0.00 0.00 30 1002.0
20260508234553 68 304 13.9 21.7 0.00 0.00 0.00 29 1002.0
20260508233052 69 308 13.0 20.9 0.00 0.00 0.00 27 1002.0
20260508231551 69 299 16.5 23.5 0.00 0.00 0.00 26 1001.9
20260508230051 69 336 18.2 25.2 0.00 0.00 0.00 25 1001.9
20260508224620 69 321 16.5 23.5 0.00 0.00 0.00 26 1002.0
20260508223053 70 283 16.5 26.9 0.00 0.00 0.00 25 1001.9
20260508221550 70 340 17.4 22.6 0.00 0.00 0.00 24 1001.7
20260508220053 71 320 18.2 25.2 0.00 0.00 0.00 24 1001.8
20260508214551 71 316 19.1 26.9 0.00 0.00 0.00 24 1001.7
20260508213047 71 302 18.2 26.9 0.00 0.00 0.00 25 1001.7
20260508211552 71 329 13.0 25.2 0.00 0.00 0.00 28 1001.5
20260508210048 72 285 14.8 20.9 0.00 0.00 0.00 28 1001.5
20260508204546 71 293 11.3 23.5 0.00 0.00 0.00 29 1001.5
20260508203047 72 320 15.6 23.5 0.00 0.00 0.00 28 1001.5
20260508201545 72 276 15.6 26.9 0.00 0.00 0.00 27 1001.5
20260508200043 73 269 9.6 20.9 0.00 0.00 0.00 26 1001.6
20260508194542 72 317 13.9 20.9 0.00 0.00 0.00 26 1001.7
20260508193040 71 326 13.0 20.9 0.00 0.00 0.00 27 1001.9
20260508191546 71 340 16.5 26.1 0.00 0.00 0.00 27 1002.0
20260508190141 70 307 9.6 20.9 0.00 0.00 0.00 28 1002.0
20260508184539 72 323 18.2 25.2 0.00 0.00 0.00 27 1002.0
20260508183035 71 280 12.2 15.6 0.00 0.00 0.00 28 1002.3
20260508181535 70 266 9.6 18.2 0.00 0.00 0.00 27 1002.4
20260508180036 71 300 11.3 21.7 0.00 0.00 0.00 27 1002.6
20260508174530 68 279 11.3 15.6 0.00 0.00 0.00 29 1002.7
20260508173028 68 236 11.3 16.5 0.00 0.00 0.00 26 1002.9
20260508171528 69 268 11.3 16.5 0.00 0.00 0.00 26 1003.2
20260508170023 67 253 11.3 18.2 0.00 0.00 0.00 27 1003.5
20260508164521 66 263 10.4 18.2 0.00 0.00 0.00 28 1003.6
20260508163029 65 266 10.4 15.6 0.00 0.00 0.00 29 1003.7
20260508161520 66 236 13.0 17.4 0.00 0.00 0.00 28 1003.7
20260508160023 67 264 9.6 16.5 0.00 0.00 0.00 26 1003.7
20260508154519 66 265 9.6 18.2 0.00 0.00 0.00 30 1003.8
20260508153015 66 276 9.6 15.6 0.00 0.00 0.00 29 1004.0
20260508151512 65 260 10.4 16.5 0.00 0.00 0.00 30 1004.3
20260508150025 63 254 8.7 15.6 0.00 0.00 0.00 31 1004.5
20260508144506 63 226 11.3 17.4 0.00 0.00 0.00 30 1004.7
20260508143007 62 233 12.2 17.4 0.00 0.00 0.00 30 1004.8
20260508141605 62 250 11.3 16.5 0.00 0.00 0.00 31 1004.8
20260508140106 61 229 9.6 13.9 0.00 0.00 0.00 37 1004.9
20260508134549 60 240 9.6 15.6 0.00 0.00 0.00 38 1005.1
20260508133049 57 240 10.4 14.8 0.00 0.00 0.00 42 1005.5
20260508131541 55 221 9.6 12.2 0.00 0.00 0.00 45 1005.5
20260508130037 51 232 9.6 13.9 0.00 0.00 0.00 49 1005.6
20260508124534 49 237 12.2 15.6 0.00 0.00 0.00 52 1005.4
20260508123034 48 220 9.6 13.0 0.00 0.00 0.00 52 1005.3
20260508121529 48 226 10.4 14.8 0.00 0.00 0.00 53 1005.3
20260508120028 46 214 11.3 15.6 0.00 0.00 0.00 54 1005.4
20260508114524 45 226 7.8 11.3 0.00 0.00 0.00 57 1005.4
20260508113021 47 210 10.4 14.8 0.00 0.00 0.00 52 1005.4
20260508111519 47 213 10.4 14.8 0.00 0.00 0.00 51 1005.4
20260508110017 47 219 10.4 13.9 0.00 0.00 0.00 48 1005.6
20260508104517 47 210 9.6 13.0 0.00 0.00 0.00 47 1005.8
20260508103019 48 217 10.4 13.0 0.00 0.00 0.00 47 1005.8
20260508101517 46 217 8.7 11.3 0.00 0.00 0.00 50 1005.9
20260508100022 46 231 7.8 12.2 0.00 0.00 0.00 50 1005.9
20260508094513 46 226 7.8 11.3 0.00 0.00 0.00 48 1005.8
20260508093013 47 224 9.6 12.2 0.00 0.00 0.00 45 1005.8
20260508091510 48 207 10.4 13.0 0.00 0.00 0.00 44 1005.9
20260508090008 47 214 9.6 11.3 0.00 0.00 0.00 48 1005.9
20260508084506 47 214 9.6 13.0 0.00 0.00 0.00 50 1005.9
20260508083002 46 219 9.6 12.2 0.00 0.00 0.00 51 1006.0
20260508081501 46 208 9.6 11.3 0.00 0.00 0.00 51 1006.0
20260508080111 45 212 7.8 11.3 0.00 0.00 0.00 52 1006.2
20260508074614 45 214 9.6 12.2 0.00 0.00 0.00 53 1006.3
20260508073059 44 207 8.7 11.3 0.00 0.00 0.00 53 1006.3
20260508071554 44 209 8.7 11.3 0.00 0.00 0.00 51 1006.5
20260508070055 44 224 7.8 10.4 0.00 0.00 0.00 52 1006.6
20260508064557 43 209 7.8 10.4 0.00 0.00 0.00 54 1006.7
20260508063053 43 217 7.8 9.6 0.00 0.00 0.00 54 1006.8
20260508061548 44 210 7.0 9.6 0.00 0.00 0.00 52 1006.9
20260508060046 43 203 7.0 9.6 0.00 0.00 0.00 53 1007.0
20260508054548 43 210 7.0 8.7 0.00 0.00 0.00 54 1007.0
20260508053052 43 214 7.0 9.6 0.00 0.00 0.00 54 1007.0
20260508051546 43 217 7.0 8.7 0.00 0.00 0.00 54 1007.1
20260508050139 42 217 6.1 7.8 0.00 0.00 0.00 56 1007.1
20260508044536 42 214 6.1 7.8 0.00 0.00 0.00 57 1007.3
20260508043035 41 226 5.2 7.0 0.00 0.00 0.00 63 1007.6